Other Surface Observations
Issued by NWS

Home | Current Version | Previous Version | Text Only | Print | Product List | Glossary On
Versions: 1 2 3 4 5 6 7 8 9 10 11 12 13 14 15 16 17 18 19 20 21 22 23 24 25 26 27 28 29 30 31 32 33 34 35 36 37 38 39 40 41 42 43 44 45 46 47 48 49 50
000
SXUS52 KTAE 011218
OSOTAE
OSOTAE
North Florida/South Alabama/Southwest Georgia Weather Roundup
National Weather Service Tallahassee Florida
800 AM EDT FRI AUG 01 2014

Note: "fair" indicates few or no clouds below 12,000 feet with no
significant weather and/or obstructions to visibility.

!FLZ017-115-028-034-025-011300
...North Florida...

CITY           SKY/WX    TMP DP  RH WIND       PRES   REMARKS
TALLAHASSEE    PTSUNNY   70  65  84 CALM      29.98R
APALACHICOLA   SUNNY     67  67 100 CALM      29.98R
PERRY          PTSUNNY   68  68 100 CALM      29.98R
CROSS CITY       N/A     72  69  90 CALM      29.98R
HOMERVILLE     FAIR      75  73  94 CALM      29.98S FOG
JACKSONVILLE   PTSUNNY   75  75 100 CALM      29.97R
$$

!FLZ112-006-005-002-011-011300
...Florida Panhandle...

CITY           SKY/WX    TMP DP  RH WIND       PRES   REMARKS
MARIANNA       MOSUNNY   69  68  96 CALM      29.97S
BONIFAY        FAIR      67  66  97 CALM      29.99S
PANAMA CITY NW FAIR      70  66  87 CALM      29.97R
TYNDALL AFB    SUNNY     70  69  97 CALM      29.99R
TYND DRONE APT FAIR      69  69  98 CALM      29.97R
DE FUNIAK SPR  FAIR      69  65  88 N3        30.00R
EGLIN AFB      PTSUNNY   71  65  83 N3        29.98R
DESTIN         MOSUNNY   75  68  78 N3        29.98R
HURLBURT       MOSUNNY   70  63  78 N6        29.97R
CRESTVIEW      PTSUNNY   68  66  93 CALM      30.00S FOG
PENSACOLA      CLOUDY    71  66  84 CALM      29.98R
$$

!ALZ063-066-011300
...South Alabama...

CITY           SKY/WX    TMP DP  RH WIND       PRES   REMARKS
DOTHAN         MOSUNNY   69  68  96 CALM      30.03R FOG
OZARK CAIRNS   MOSUNNY   71  69  94 N6        30.00R
FT RUCKER HELI MOSUNNY   67  65  93 CALM      29.99R FOG
RUCKER HELI 3  PTSUNNY   71  69  94 N3        30.02R FOG
RUCKER HELI 2  FAIR      70  68  93 N5        30.00R
FLORALA APT    PTSUNNY   71  67  87 CALM      30.01R
ANDALUSIA      PTSUNNY   74  68  81 E3        29.99S
TROY           PTSUNNY   71  68  90 NE3       30.01R FOG
EUFALA         CLOUDY    74  69  85 NE6       30.00R
MOBILE         CLOUDY    71  67  87 N3        30.00S
$$

!GAZ120>161-011300
...Southwest and South Central Georgia...

CITY           SKY/WX    TMP DP  RH WIND       PRES   REMARKS
THOMASVILLE    FAIR      72  72 100 N3        29.99R FOG
BAINBRIDGE     PTSUNNY   73  70  88 CALM      29.98S
MOODY AFB      CLOUDY    73  70  92 NE2       29.97R
VALDOSTA       CLOUDY    74  67  78 CALM      29.97R
MOULTRIE       MOSUNNY   72  72 100 CALM      29.99R FOG
BLAKELY        PTSUNNY   72  70  94 CALM      29.99S FOG
ALBANY         CLOUDY    74  72  93 NE6       30.01R
TIFTON         FAIR      72  72  98 N5        29.98S FOG
FITZGERALD     CLOUDY    75  72  91 N5        30.01S FOG
CORDELE        CLOUDY    75  72  90 NE6       30.01R FOG
AMERICUS       CLOUDY    72  70  94 NE8       30.03S FOG
$$

!GMZ750-755-770-775-011300
...Coastal and Buoy Obs...

STATION/POSITION TIME  TEMP    WIND        PRES    VSBY  WAVE
                       AIR SEA DIR/SP/G                  HT/PER
                 (UTC) (F)     (DEG/KT/KT) (MB)    (MI)  (FT/S)
KEATON BEACH     1200   72      70/  3/  3 1015.2R
CEDAR KEY        1158   79      10/  3/  4 1015.6R
C TOWER          1200   80     250/  6/  7 1015.3R
APALACHICOLA BUO 1200   82 85  280/  4/  6 1015.3R         1
PANAMA CITY BUOY 1131   81 85  240/  4/  4 1015.4R         1
MOBILE BUOY      1051   81 84   CALM  /  2 1015.3
ORANGE BCH AL BU 1200   79 83   50/  8/ 10 1015.0R         1
$$



USA.gov is the U.S. government's official web portal to all federal, state and local government web resources and services.